Preview of NWS' New Version of Forecast
This preview is not operational and should not be used for support decisions.

Regional Weather Roundup (RWR)

Issued by National Weather Service (NWS)

                            
000
ASUS45 KCYS 190810
RWRWY 

WYOMING REGIONAL WEATHER ROUNDUP
NATIONAL WEATHER SERVICE CHEYENNE WY
200 AM MDT FRI APR 19 2019

NOTE:  "FAIR" INDICATES FEW OR NO CLOUDS BELOW 12,000 FEET
WITH NO SIGNIFICANT WEATHER AND/OR OBSTRUCTIONS TO VISIBILITY.

WYZ001-190900-
...YELLOWSTONE NATIONAL PARK...
  
CITY           SKY/WX    TMP DP  RH WIND       PRES   REMARKS
LK YELLOWSTONE   N/A     26  22  84 CALM      30.32F                  
W YELLOWSTONE  NOT AVBL                                               

$$
WYZ002>013-054>058-071-098>099-190900-
...NORTHERN WYOMING...
  
CITY           SKY/WX    TMP DP  RH WIND       PRES   REMARKS
JACKSON        CLEAR     31  27  85 N8        30.30  WCI  23          
CODY           PTCLDY    57  29  34 W9G28     30.13S                  
GREYBULL       CLEAR     49  27  42 E7        30.09F                  
WORLAND        PTCLDY    40  31  70 SE3       30.11S                  
SHERIDAN       PTCLDY    42  32  67 S6        30.03F                  
BUFFALO        PTCLDY    43  30  60 W5        30.08F                  
GILLETTE       CLEAR     44  30  57 S14       30.07F                  
HULETT         FAIR      36  28  75 SW8       30.08F WCI  29          
NEWCASTLE      FAIR      32  23  69 CALM      30.14F                  

$$
WYZ014>020-022>026-101>103-190900-
...CENTRAL WYOMING...
  
CITY           SKY/WX    TMP DP  RH WIND       PRES   REMARKS
BIG PINEY      CLEAR     32  25  75 NE8       30.32S WCI  25          
PINEDALE       PTCLDY    30  28  93 NW5       30.33S WCI  25          
DUBOIS         FAIR      36  27  69 NW12      30.26S WCI  27          
LANDER         CLEAR     47  26  44 CALM      30.17F                  
RIVERTON       CLEAR     47  29  49 NW17      30.17F                  
CASPER         CLEAR     33  29  85 W5        30.16F WCI  29          
DOUGLAS        CLEAR     32  27  81 CALM      30.16F                  

$$
WYZ021-027>030-104>119-190900-
...SOUTHERN WYOMING...
  
CITY           SKY/WX    TMP DP  RH WIND       PRES   REMARKS
EVANSTON       CLEAR     40  26  57 S7        30.34F                  
KEMMERER       CLEAR     36  30  80 W7        30.33F WCI  30          
FORT BRIDGER   NOT AVBL                                               
ROCK SPRINGS   CLEAR     40  29  64 S7        30.30S                  
DIXON          FAIR      35  29  82 E10       30.33R WCI  27          
RAWLINS        CLEAR     41  29  62 SW15      30.25S                  
SARATOGA       FAIR      39  28  65 W9        30.27S WCI  33          
LARAMIE        PTCLDY    29  23  78 S10       30.24R WCI  20          
CHEYENNE       MOCLDY    34  28  79 SW8       30.23S WCI  27          
TORRINGTON     CLEAR     36  28  73 CALM      30.17F                  
PINE BLUFFS    FAIR      30  27  86 S6        30.23S WCI  24          

$$